Location: Willingham
(52.3167°N, 0.0667°E)
Time: 17:42:19
(UTC+00:00)

Helios 1B - Pass Details

Date: 19 May 2025
Orbit: 608 x 609 km, 98.2° (Epoch: 13 June)

Event Time Altitude Azimuth Distance (km) Brightness Sun altitude
Rises 22:31:17 0° 15° (NNE) 2,887 8.9 -15.4°
Reaches altitude 10° 22:33:29 10° 17° (NNE) 1,977 7.9 -15.5°
Maximum altitude 22:37:47 78° 105° (ESE) 630 4.5 -15.7°
Enters shadow 22:40:11 26° 188° (S) 1,221 5.6 -15.8°
